Date,TemperatureHighF,TemperatureAvgF,TemperatureLowF,DewpointHighF,DewpointAvgF,DewpointLowF,HumidityHigh,HumidityAvg,HumidityLow,PressureMaxIn,PressureMinIn,WindSpeedMaxMPH,WindSpeedAvgMPH,GustSpeedMaxMPH,PrecipitationSumIn
2014-1-1,39.8,29.6,17.9,27.0,22.1,13.6,87,74,57,30.42,30.16,3,1,5,0.00
2014-1-2,31.2,26.8,18.0,27.7,24.0,16.6,95,89,82,30.17,29.67,4,1,10,0.00
2014-1-3,19.7,12.4,1.5,18.3,5.0,-2.9,94,73,47,30.50,29.67,8,2,17,0.00
2014-1-4,30.2,14.8,0.6,15.5,7.6,-3.7,91,74,52,30.55,30.28,4,1,8,0.00
2014-1-5,49.5,26.8,12.0,49.2,25.5,10.2,99,95,83,30.30,29.66,6,1,15,0.29
2014-1-6,51.7,35.0,5.3,51.3,27.7,-9.5,99,76,45,30.00,29.44,9,6,19,0.26
2014-1-7,9.6,4.4,-1.6,-3.3,-9.0,-15.4,61,53,47,30.47,30.00,9,4,16,0.00
2014-1-8,23.2,15.0,4.8,13.0,2.7,-3.5,71,58,43,30.63,30.46,3,1,5,0.00
2014-1-9,32.9,25.9,18.6,20.8,16.7,12.5,84,68,55,30.69,30.52,2,0,5,0.00
2014-1-10,35.1,31.9,28.0,34.5,29.4,20.8,98,90,74,30.57,30.13,2,0,4,0.45
2014-1-11,56.9,46.1,34.7,56.6,45.5,34.2,100,98,87,30.13,29.42,7,2,18,1.02
2014-1-12,47.5,39.3,29.3,43.5,32.1,26.5,93,76,63,30.11,29.49,8,2,14,0.00
2014-1-13,52.0,41.1,28.5,38.9,33.9,26.0,94,77,59,30.12,29.85,5,2,12,0.00
2014-1-14,48.6,44.4,35.7,45.2,41.9,35.1,99,91,67,29.90,29.69,4,1,10,0.33
2014-1-15,41.4,36.4,28.1,40.2,34.9,27.6,99,94,75,29.97,29.88,4,1,9,0.01
2014-1-16,36.1,30.9,22.5,27.6,20.5,17.2,85,66,48,30.02,29.88,5,2,9,0.00
2014-1-17,42.2,32.9,22.6,33.2,27.0,18.4,93,79,63,29.97,29.82,3,0,7,0.00
2014-1-18,32.0,25.8,17.5,29.6,18.5,10.1,96,74,54,29.98,29.79,7,4,14,0.00
2014-1-19,37.7,28.0,17.8,26.7,18.4,10.7,76,67,59,29.95,29.71,6,1,10,0.00
2014-1-20,46.2,38.3,32.9,30.6,26.5,22.2,71,63,48,29.89,29.64,5,2,11,0.00
2014-1-21,34.3,20.7,8.7,24.9,16.1,0.2,92,83,67,29.96,29.81,3,1,10,0.00
2014-1-22,12.9,6.2,-0.2,0.6,-2.8,-6.8,74,66,56,30.09,29.89,6,3,14,0.00
2014-1-23,20.2,12.0,3.2,11.1,3.5,-2.4,81,69,57,30.40,30.09,4,2,9,0.00
2014-1-24,17.7,10.9,3.8,1.6,-0.4,-2.8,74,61,48,30.50,30.07,5,2,9,0.00
2014-1-25,25.2,20.4,16.4,22.0,10.3,0.1,94,66,48,30.06,29.47,7,3,16,0.00
2014-1-26,27.4,20.3,8.6,20.0,10.0,-0.4,91,64,47,29.95,29.60,7,2,12,0.00
2014-1-27,41.9,26.7,14.7,28.8,14.4,-0.4,84,60,38,30.18,29.63,9,3,16,0.01
2014-1-28,14.6,10.2,6.1,5.1,-3.4,-8.0,84,54,42,30.46,30.17,6,2,11,0.00
2014-1-29,18.7,11.8,5.4,6.0,-0.8,-6.3,87,58,40,30.36,30.22,5,2,9,0.00
2014-1-30,28.5,15.1,0.0,9.2,2.0,-5.3,81,57,39,30.51,30.20,3,1,7,0.00
2014-1-31,39.9,28.0,17.5,25.1,18.4,9.4,78,67,45,30.25,30.13,2,0,6,0.00
2014-2-1,46.3,36.1,26.1,33.1,25.6,19.9,94,68,42,30.32,29.99,5,1,8,0.00
2014-2-2,46.5,37.0,28.4,36.5,32.8,27.6,97,86,63,30.10,29.93,1,0,2,0.01
2014-2-3,37.5,32.1,21.9,36.5,31.0,20.2,97,96,91,30.34,30.07,3,0,5,0.34
2014-2-4,30.5,22.9,14.2,25.6,18.8,12.8,95,85,68,30.49,30.21,2,0,4,0.00
2014-2-5,34.6,31.9,27.8,33.6,30.3,20.7,98,94,73,30.23,29.67,8,1,16,0.03
2014-2-6,30.5,24.2,20.1,20.7,17.1,13.7,87,74,63,30.35,30.08,6,2,12,0.00
2014-2-7,32.8,24.8,14.9,21.2,17.3,12.5,93,74,58,30.36,30.27,3,1,6,0.00
2014-2-8,29.1,21.0,14.4,15.1,12.0,9.0,86,69,45,30.37,30.19,2,0,4,0.00
2014-2-9,25.8,21.5,15.2,21.4,16.3,11.5,95,81,62,30.23,30.02,3,0,6,0.00
2014-2-10,26.7,20.2,13.7,20.9,12.1,6.2,96,72,53,30.33,30.06,6,2,15,0.00
2014-2-11,24.8,15.9,4.1,10.0,6.9,0.3,89,68,49,30.51,30.33,5,1,10,0.00
2014-2-12,22.2,14.3,1.0,17.0,7.5,-2.7,91,74,59,30.57,30.24,2,1,4,0.00
2014-2-13,33.2,28.4,19.1,32.3,27.4,17.0,98,96,91,30.24,29.25,4,1,12,0.26
2014-2-14,41.9,33.4,25.4,30.9,26.5,20.7,98,77,55,29.77,29.28,8,2,11,0.18
2014-2-15,32.6,30.3,23.5,31.0,26.0,12.7,95,84,62,29.91,29.64,8,2,19,0.02
2014-2-16,28.9,22.4,17.5,18.6,13.2,8.8,86,68,50,30.20,29.91,6,3,12,0.00
2014-2-17,31.1,20.9,11.1,16.6,9.0,4.0,88,61,39,30.47,30.20,5,2,9,0.00
2014-2-18,42.8,31.3,21.8,31.2,25.8,10.8,95,81,56,30.27,30.00,4,2,9,0.18
2014-2-19,47.2,37.5,24.6,39.5,32.2,22.9,97,82,65,30.13,29.71,8,2,14,0.19
2014-2-20,49.8,38.4,25.9,32.5,28.5,22.9,91,69,38,30.28,29.96,5,1,10,0.00
2014-2-21,52.1,39.5,34.1,51.6,38.0,30.0,99,94,65,29.96,29.63,8,1,18,0.15
2014-2-22,56.3,44.4,32.8,32.0,25.8,21.3,70,50,29,30.09,29.95,5,2,12,0.00
2014-2-23,50.7,41.9,33.2,36.5,31.0,27.5,91,67,47,30.03,29.90,4,1,10,0.09
2014-2-24,36.4,31.8,20.4,33.1,18.3,12.2,91,59,41,30.13,29.90,6,3,12,0.00
2014-2-25,32.1,24.4,16.2,23.3,15.8,11.4,84,70,54,30.13,29.99,5,1,10,0.00
2014-2-26,28.7,23.1,12.2,22.7,12.1,2.9,89,64,40,30.01,29.87,8,2,13,0.00
2014-2-27,30.2,19.7,10.3,16.0,6.1,-7.8,73,56,40,30.19,29.70,9,3,15,0.00
2014-2-28,21.9,12.6,5.6,1.9,-4.6,-9.3,65,46,29,30.46,30.18,5,1,10,0.00
2014-3-1,37.6,24.5,9.6,20.0,10.5,-3.2,67,55,42,30.43,30.17,4,1,6,0.00
2014-3-2,38.2,33.4,28.1,33.5,27.1,18.6,95,78,59,30.17,30.01,2,0,5,0.09
2014-3-3,30.6,17.9,9.7,26.7,9.3,2.1,92,69,55,30.37,30.02,4,2,12,0.00
2014-3-4,28.5,16.9,7.1,10.1,4.6,0.5,76,59,40,30.46,30.27,3,1,6,0.00
2014-3-5,40.2,26.1,13.6,18.7,12.8,8.9,84,59,32,30.47,30.23,3,1,7,0.01
2014-3-6,30.6,22.9,15.2,18.7,10.9,6.4,79,61,43,30.64,30.43,3,1,7,0.00
2014-3-7,41.2,30.5,22.5,29.6,23.9,17.8,85,77,62,30.43,29.94,4,1,8,0.00
2014-3-8,54.7,40.2,25.0,37.0,30.5,22.5,92,70,49,29.95,29.86,3,1,7,0.00
2014-3-9,43.1,37.6,32.7,35.1,24.4,17.6,79,60,40,30.10,29.92,6,3,12,0.00
2014-3-10,56.9,44.2,33.3,36.0,27.9,20.1,61,53,43,29.98,29.61,4,2,8,0.00
2014-3-11,66.3,52.1,39.6,44.7,38.2,31.6,80,60,45,29.70,29.60,4,1,5,0.00
2014-3-12,61.5,47.9,25.3,53.5,39.9,15.2,96,74,54,29.65,28.99,12,3,20,0.46
2014-3-13,29.1,23.4,17.5,15.1,6.4,1.9,67,49,33,30.16,29.40,13,7,21,0.00
2014-3-14,46.9,34.8,19.0,29.7,16.9,7.5,62,48,35,30.22,29.85,6,3,14,0.00
2014-3-15,58.4,50.1,41.1,37.0,29.4,25.9,62,45,32,30.06,29.77,7,4,13,0.00
2014-3-16,41.0,34.6,28.7,28.3,17.3,5.8,68,50,29,30.20,30.05,4,2,9,0.00
2014-3-17,32.2,27.1,20.6,23.1,17.8,7.6,91,69,45,30.11,30.03,3,1,7,0.05
2014-3-18,45.9,35.4,29.2,26.9,20.9,13.0,68,56,39,30.26,30.10,4,1,9,0.00
2014-3-19,42.8,38.0,32.8,41.7,33.3,13.2,98,84,42,30.26,29.83,4,1,8,0.42
2014-3-20,51.1,43.8,35.4,41.1,32.9,25.4,98,69,41,29.98,29.78,8,3,15,0.00
2014-3-21,53.4,40.5,28.4,29.4,26.4,21.2,86,60,31,30.06,29.97,5,1,11,0.00
2014-3-22,65.8,49.8,36.9,41.1,33.7,28.4,87,58,30,30.02,29.80,7,3,15,0.00
2014-3-23,44.4,38.4,27.4,29.2,22.5,11.8,68,53,34,30.18,29.99,5,2,9,0.00
2014-3-24,34.5,26.5,19.2,14.2,8.5,5.2,64,47,31,30.31,30.15,5,2,10,0.00
2014-3-25,34.1,27.8,20.3,30.3,21.5,9.1,94,78,56,30.17,29.89,3,1,8,0.01
2014-3-26,34.5,28.7,25.2,27.1,15.0,3.3,96,61,29,30.31,29.87,9,4,17,0.01
2014-3-27,42.5,32.0,18.4,24.9,15.2,7.5,69,50,36,30.44,30.21,4,2,13,0.01
2014-3-28,63.1,49.2,34.9,53.7,42.6,24.9,92,78,65,30.21,29.96,6,3,12,0.08
2014-3-29,54.0,47.4,44.2,49.9,45.8,43.1,99,94,83,30.11,29.57,4,2,11,0.80
2014-3-30,47.8,39.8,33.7,47.3,38.9,32.7,99,97,94,29.80,29.51,7,3,15,1.70
2014-3-31,61.7,47.3,34.7,37.6,33.7,30.5,94,63,34,30.11,29.80,8,4,17,0.11
2014-4-1,63.1,47.2,31.7,40.4,34.0,27.6,87,62,40,30.17,29.96,4,1,7,0.00
2014-4-2,60.8,48.1,40.2,48.7,42.8,37.0,94,83,62,30.14,30.00,2,0,6,0.06
2014-4-3,62.6,52.9,47.5,48.1,41.2,31.0,93,68,37,30.13,29.94,2,0,6,0.18
2014-4-4,47.5,45.0,43.4,45.4,41.4,38.6,93,87,82,29.99,29.95,3,2,10,0.04
2014-4-5,51.2,46.2,38.2,35.5,31.0,27.3,65,56,48,30.14,29.89,9,6,16,0.00
2014-4-6,58.8,43.7,27.7,30.0,25.9,22.3,84,53,26,30.25,30.13,3,1,9,0.00
2014-4-7,50.2,42.7,37.1,49.7,37.4,22.7,98,83,42,30.19,29.61,6,1,12,0.50
2014-4-8,60.4,54.3,42.3,54.9,46.2,36.9,99,76,50,29.67,29.46,8,3,15,0.02
2014-4-9,63.4,50.4,37.4,38.4,33.3,26.3,86,56,26,30.04,29.66,6,2,12,0.00
2014-4-10,66.8,53.5,35.0,40.1,34.4,28.4,79,50,33,30.20,30.00,6,3,14,0.00
2014-4-11,76.2,61.7,53.8,54.7,45.8,38.9,96,59,33,30.04,29.92,8,2,12,0.03
2014-4-12,73.7,59.5,45.9,52.8,43.7,33.4,99,63,26,30.25,30.02,4,1,11,0.01
2014-4-13,79.0,64.9,52.1,59.5,53.5,39.6,92,68,49,30.14,29.95,7,3,15,0.00
2014-4-14,74.8,67.5,60.9,60.3,57.4,55.2,83,71,58,29.97,29.77,7,4,17,0.00
2014-4-15,66.7,54.1,33.8,64.5,51.7,27.8,97,92,76,30.00,29.49,10,5,17,1.40
2014-4-16,47.3,36.1,28.0,29.0,20.5,12.0,80,54,38,30.56,29.99,8,3,15,0.00
2014-4-17,53.9,41.1,28.8,35.8,29.0,22.1,77,63,44,30.69,30.56,5,2,10,0.00
2014-4-18,55.2,42.7,32.1,37.8,32.7,27.8,86,69,49,30.62,30.27,4,1,7,0.00
2014-4-19,66.7,52.5,38.6,41.7,34.2,27.1,84,54,24,30.32,30.24,4,1,8,0.00
2014-4-20,62.7,51.4,42.1,40.7,34.2,29.6,66,52,39,30.45,30.30,5,2,10,0.00
2014-4-21,70.2,49.6,32.2,38.4,30.0,23.8,87,52,19,30.31,29.87,3,1,9,0.00
2014-4-22,71.3,57.7,50.9,59.1,49.2,35.8,92,74,47,29.87,29.55,9,1,11,0.20
2014-4-23,55.7,48.6,42.7,42.6,36.3,31.4,72,63,52,29.94,29.62,9,6,20,0.00
2014-4-24,62.5,50.5,39.0,31.7,24.4,19.5,68,39,20,30.08,29.94,6,3,15,0.00
2014-4-25,64.9,48.5,36.1,45.5,33.7,23.1,94,60,32,30.04,29.73,7,2,12,0.37
2014-4-26,73.2,57.5,44.9,49.7,42.5,31.0,96,62,29,29.91,29.69,7,3,14,0.00
2014-4-27,63.2,51.6,39.7,39.3,35.4,32.4,77,55,36,30.13,29.91,5,2,10,0.00
2014-4-28,63.7,51.0,37.6,47.5,39.8,32.6,94,68,44,30.15,29.98,3,1,6,0.07
2014-4-29,49.4,46.0,42.8,48.0,43.6,41.7,96,91,81,30.29,30.06,7,3,16,0.73
2014-4-30,62.1,49.0,42.5,61.7,48.4,41.7,99,98,96,30.30,29.82,5,3,13,3.38
2014-5-1,75.5,62.7,54.6,63.2,56.9,45.3,99,84,48,29.84,29.67,5,1,10,0.48
2014-5-2,65.7,57.7,49.5,45.7,42.8,40.1,82,59,42,29.87,29.77,6,2,11,0.00
2014-5-3,67.3,56.8,47.4,52.1,45.1,39.8,92,67,43,29.88,29.72,6,1,8,0.05
2014-5-4,61.7,53.8,45.1,48.2,42.0,33.9,94,66,41,29.91,29.77,7,2,17,0.00
2014-5-5,65.7,54.1,43.0,40.4,37.0,33.6,75,54,31,30.01,29.88,5,2,11,0.00
2014-5-6,71.1,59.0,46.7,44.9,39.4,34.0,86,51,28,30.07,29.89,3,1,7,0.00
2014-5-7,61.8,55.3,43.1,48.8,41.1,34.6,80,60,42,30.24,30.07,4,1,10,0.00
2014-5-8,79.3,63.6,53.7,63.2,55.8,47.7,93,77,55,30.18,30.00,4,1,7,0.00
2014-5-9,73.8,63.2,56.6,65.4,59.4,54.9,95,88,73,30.13,29.93,3,1,11,0.00
2014-5-10,81.9,69.7,62.5,66.3,62.7,59.7,97,81,51,29.95,29.88,6,1,11,0.14
2014-5-11,79.5,67.2,56.2,61.5,53.3,47.5,97,65,35,30.11,29.92,4,1,7,0.00
2014-5-12,84.8,71.4,57.5,69.4,60.4,51.0,96,70,43,30.11,30.02,3,0,6,0.01
2014-5-13,82.5,68.9,57.7,73.2,63.3,52.1,99,84,60,30.20,30.01,4,2,9,0.06
2014-5-14,67.0,59.2,52.3,63.6,56.9,51.1,98,92,82,30.26,30.14,3,1,6,0.00
2014-5-15,77.5,68.4,62.2,72.2,66.1,61.9,99,93,78,30.16,29.93,5,3,11,0.18
2014-5-16,68.6,62.5,54.2,66.5,58.3,45.4,98,87,66,29.93,29.73,10,3,18,2.36
2014-5-17,65.5,55.9,46.9,46.8,43.2,38.6,83,64,39,30.16,29.92,4,2,8,0.00
2014-5-18,64.4,54.5,43.8,46.0,41.3,36.2,88,63,37,30.24,30.15,5,2,11,0.00
2014-5-19,71.5,57.6,40.8,46.1,41.4,37.3,95,59,31,30.28,30.14,5,1,10,0.00
2014-5-20,75.3,63.0,47.0,53.5,47.4,43.6,91,60,35,30.20,30.01,3,1,8,0.05
2014-5-21,64.7,59.3,56.0,61.0,57.2,53.4,98,93,84,30.04,29.88,2,0,4,0.34
2014-5-22,81.9,67.7,59.4,67.7,62.6,58.8,99,85,55,29.89,29.73,3,1,6,0.03
2014-5-23,75.1,64.1,50.9,60.8,50.5,45.4,95,63,40,29.99,29.86,6,3,13,0.00
2014-5-24,76.2,63.9,54.1,56.8,52.2,48.2,82,67,47,30.11,29.97,4,2,8,0.00
2014-5-25,81.0,67.2,50.5,58.4,50.5,41.9,97,61,26,30.15,30.06,4,1,9,0.00
2014-5-26,86.5,73.7,56.1,60.5,54.7,49.6,82,53,34,30.10,29.93,3,1,6,0.00
2014-5-27,89.1,73.4,63.8,70.0,63.1,55.3,96,72,49,29.95,29.80,6,1,8,0.15
2014-5-28,84.5,68.3,55.2,70.0,64.1,53.6,97,87,59,30.10,29.80,6,2,11,0.01
2014-5-29,55.4,53.4,51.9,53.6,51.7,49.8,97,94,89,30.20,30.10,4,1,7,0.37
2014-5-30,77.8,63.1,53.0,59.3,55.3,52.2,98,78,48,30.15,30.01,3,1,7,0.03
2014-5-31,78.3,66.4,53.1,54.9,49.3,41.4,90,58,28,30.27,30.09,4,1,13,0.00
2014-6-1,77.4,63.8,51.4,57.7,53.3,50.3,97,71,42,30.35,30.22,4,1,7,0.00
2014-6-2,82.3,69.5,57.1,62.1,56.1,49.3,84,64,47,30.26,30.02,3,1,9,0.00
2014-6-3,88.2,75.2,62.5,71.3,65.1,59.1,91,72,52,30.04,29.79,4,1,9,0.01
2014-6-4,83.2,72.4,62.9,66.1,62.1,56.4,97,73,43,29.86,29.70,3,1,8,0.07
2014-6-5,75.8,66.6,58.6,62.3,57.7,53.0,98,76,47,29.84,29.62,5,2,10,0.24
2014-6-6,77.4,66.4,56.9,56.6,53.4,50.7,87,64,43,29.97,29.82,4,1,9,0.00
2014-6-7,84.3,69.7,53.0,59.4,56.0,51.3,96,65,38,30.04,29.92,2,1,7,0.00
2014-6-8,83.3,71.8,57.6,64.0,60.2,54.7,92,68,48,29.95,29.82,5,2,12,0.01
2014-6-9,81.6,72.7,68.7,71.7,67.2,61.5,96,84,66,29.89,29.81,4,1,8,0.08
2014-6-10,81.8,74.4,68.4,74.5,70.6,67.7,99,88,71,29.93,29.85,3,1,6,0.49
2014-6-11,72.3,68.2,63.5,71.1,66.9,62.9,98,96,93,30.03,29.91,5,2,9,0.27
2014-6-12,73.6,67.3,63.4,69.8,66.3,62.8,99,97,87,30.01,29.84,6,2,13,0.23
2014-6-13,82.6,72.2,67.3,74.3,69.5,65.2,100,92,70,29.84,29.71,3,1,7,0.37
2014-6-14,70.3,65.5,56.7,65.7,56.1,50.2,95,73,54,30.09,29.81,6,3,11,0.00
2014-6-15,82.3,67.3,53.1,60.2,55.1,49.6,90,67,41,30.17,30.06,3,1,8,0.00
2014-6-16,90.8,75.0,56.3,69.9,62.6,54.6,96,68,42,30.13,30.01,3,1,6,0.00
2014-6-17,93.7,81.9,69.9,73.4,69.7,63.6,88,68,46,30.07,29.89,3,1,8,0.00
2014-6-18,93.2,83.7,74.9,72.7,68.8,64.0,79,62,40,29.96,29.85,6,2,12,0.00
2014-6-19,77.1,72.5,66.6,71.2,68.5,64.7,97,88,75,30.01,29.89,3,1,6,0.37
2014-6-20,81.0,69.3,54.5,65.2,54.3,49.3,97,63,34,30.04,29.91,3,1,8,0.00
2014-6-21,75.7,67.5,61.1,62.2,57.8,52.9,89,72,57,29.95,29.86,2,0,4,0.02
2014-6-22,82.2,70.1,58.2,64.3,60.5,56.9,97,74,50,30.00,29.88,3,1,7,0.00
2014-6-23,82.8,72.6,61.5,67.4,62.2,58.7,98,72,47,30.11,30.00,4,2,10,0.00
2014-6-24,84.2,75.2,65.8,68.8,63.9,60.3,87,70,48,30.12,29.98,5,2,11,0.00
2014-6-25,88.2,78.6,69.0,75.1,71.7,67.1,98,81,60,29.98,29.77,5,2,13,0.81
2014-6-26,86.6,75.8,68.9,70.4,68.1,65.5,99,79,55,29.96,29.80,4,1,9,0.00
2014-6-27,84.1,74.4,66.2,71.1,67.2,62.1,95,79,59,30.18,29.96,4,1,7,0.00
2014-6-28,86.2,74.4,61.0,65.7,62.3,58.9,94,68,42,30.27,30.18,2,1,6,0.00
2014-6-29,85.1,78.6,64.0,65.3,62.0,54.8,91,58,44,30.22,30.09,4,2,9,0.00
2014-6-30,86.3,77.1,68.8,71.3,65.9,54.7,85,69,56,30.10,29.91,4,2,9,0.00
2014-7-1,90.4,81.2,71.9,75.8,72.4,68.2,90,76,60,29.94,29.79,5,2,14,0.00
2014-7-2,94.3,82.8,75.0,80.1,75.3,70.9,94,79,56,29.88,29.76,4,1,10,0.00
2014-7-3,90.0,78.3,70.9,77.6,73.5,68.8,97,86,59,29.97,29.85,4,1,10,0.23
2014-7-4,76.4,70.0,63.9,70.5,60.3,49.3,97,74,43,30.13,29.95,8,3,15,0.20
2014-7-5,82.9,70.3,57.3,56.1,52.7,48.9,82,56,34,30.23,30.12,5,1,12,0.00
2014-7-6,86.6,74.2,58.4,67.5,60.1,53.1,86,63,45,30.13,29.92,3,1,8,0.00
2014-7-7,90.1,81.6,73.0,71.1,68.1,65.2,82,65,47,29.92,29.74,4,2,8,0.00
2014-7-8,92.3,80.7,69.0,74.2,69.2,65.8,91,69,51,29.81,29.62,6,2,16,0.09
2014-7-9,87.2,76.3,65.8,72.4,68.5,64.0,96,78,57,29.93,29.77,4,1,10,0.00
2014-7-10,86.1,75.6,65.5,69.7,66.3,61.6,96,76,46,30.12,29.93,6,1,13,0.27
2014-7-11,87.6,74.6,62.2,70.8,66.4,61.6,99,78,48,30.19,30.10,3,1,7,0.01
2014-7-12,86.5,76.4,65.9,73.3,68.2,64.3,96,77,52,30.20,30.07,5,2,10,0.00
2014-7-13,87.3,78.9,69.7,77.6,72.7,66.9,95,82,65,30.08,29.85,5,2,10,0.18
2014-7-14,86.9,75.2,69.3,77.3,71.5,68.2,98,89,68,29.90,29.78,3,0,6,0.14
2014-7-15,84.4,75.0,69.1,76.6,72.5,67.7,99,92,72,29.82,29.68,3,0,4,0.15
2014-7-16,81.5,72.5,66.0,68.0,61.9,55.1,97,72,44,29.90,29.74,3,1,7,0.00
2014-7-17,81.4,70.1,59.4,59.9,57.1,53.8,89,66,40,30.12,29.89,4,1,9,0.00
2014-7-18,85.0,70.2,56.4,62.8,58.0,53.7,94,68,37,30.23,30.12,2,0,6,0.00
2014-7-19,81.8,72.0,64.6,64.5,60.9,54.9,92,70,43,30.20,30.12,4,1,8,0.05
2014-7-20,83.1,72.4,64.2,67.0,64.0,61.5,95,77,50,30.12,30.06,3,1,6,0.00
2014-7-21,82.9,73.8,65.1,68.1,66.1,63.3,98,79,56,30.18,30.10,2,0,4,0.00
2014-7-22,88.2,77.2,67.8,74.6,69.9,66.3,96,79,60,30.18,30.03,4,1,12,0.00
2014-7-23,92.9,78.1,68.4,78.5,71.1,66.3,98,80,55,30.03,29.75,8,1,14,1.29
2014-7-24,80.5,71.8,63.6,69.4,63.4,56.1,99,77,51,29.93,29.82,3,1,7,0.00
2014-7-25,83.2,69.1,55.5,59.7,55.9,51.6,88,65,38,30.05,29.93,3,0,6,0.00
2014-7-26,86.9,74.1,65.9,69.6,62.8,57.6,89,70,42,29.99,29.86,2,1,8,0.00
2014-7-27,90.8,77.6,65.1,74.7,70.5,64.5,99,81,54,29.86,29.61,7,1,18,1.17
2014-7-28,80.7,70.5,64.2,71.4,64.8,60.8,100,85,54,29.78,29.52,5,2,12,0.21
2014-7-29,73.0,65.5,57.1,62.8,58.0,55.1,95,78,59,29.98,29.77,3,1,7,0.00
2014-7-30,80.3,66.7,53.6,60.3,56.8,52.2,96,73,45,30.05,29.98,2,0,7,0.00
2014-7-31,84.6,72.5,59.9,66.8,62.6,57.8,94,73,50,30.10,30.02,3,1,7,0.00
2014-8-1,83.7,72.8,67.9,72.4,68.0,63.8,96,85,65,30.16,30.10,4,1,9,0.01
2014-8-2,80.2,71.5,64.8,69.0,66.2,63.3,96,84,62,30.15,30.05,3,1,7,0.01
2014-8-3,74.1,69.3,66.2,69.7,66.5,64.5,97,91,80,30.09,29.99,2,1,5,0.03
2014-8-4,83.4,71.3,62.5,70.5,65.8,61.9,99,84,60,30.09,30.03,3,1,6,0.00
2014-8-5,89.0,75.0,61.4,71.0,65.2,60.5,97,74,42,30.05,29.90,2,0,5,0.00
2014-8-6,81.0,70.3,62.5,68.2,64.1,60.8,96,82,60,29.94,29.86,3,1,7,0.02
2014-8-7,81.8,70.5,58.4,63.9,59.9,57.1,97,72,47,30.03,29.92,4,1,8,0.00
2014-8-8,81.6,68.9,55.5,62.3,57.9,53.6,96,71,43,30.13,30.03,3,0,5,0.00
2014-8-9,84.2,70.3,55.9,64.3,59.7,53.9,95,72,45,30.12,30.05,2,0,5,0.00
2014-8-10,86.8,72.5,57.3,68.0,61.4,55.6,96,71,43,30.13,30.06,2,0,5,0.00
2014-8-11,81.5,72.1,61.2,68.2,63.0,56.6,97,75,45,30.11,30.01,5,2,14,0.00
2014-8-12,71.7,69.9,68.2,70.6,68.7,67.1,98,96,89,30.02,29.76,6,3,17,1.39
2014-8-13,81.5,72.4,67.1,70.2,65.1,55.3,99,80,55,29.85,29.71,6,2,12,0.05
2014-8-14,79.0,67.7,56.6,63.0,55.8,51.0,86,67,47,29.91,29.81,3,1,8,0.00
2014-8-15,76.2,64.9,53.7,57.3,52.7,48.8,88,66,43,29.99,29.91,4,1,8,0.00
2014-8-16,81.3,66.6,51.5,60.1,55.1,50.1,97,70,39,30.02,29.91,2,0,6,0.00
2014-8-17,81.7,69.3,60.6,70.4,61.9,56.6,96,78,58,29.91,29.84,3,1,7,0.09
2014-8-18,82.1,69.7,56.2,67.1,62.0,54.9,98,78,55,29.93,29.80,2,0,5,0.00
2014-8-19,84.5,73.2,62.3,69.1,64.7,58.2,93,76,57,29.90,29.81,3,1,6,0.00
2014-8-20,83.8,74.4,65.6,70.0,65.7,61.2,92,75,57,30.00,29.89,4,1,8,0.00
2014-8-21,86.1,73.8,65.2,75.2,68.9,63.4,96,85,67,30.03,29.94,2,1,5,0.01
2014-8-22,79.3,72.8,67.2,70.7,68.6,65.6,97,87,70,30.00,29.93,3,1,6,0.00
2014-8-23,72.2,67.7,64.0,65.8,63.7,61.9,95,87,78,30.10,29.98,3,1,6,0.00
2014-8-24,81.0,70.0,60.6,65.1,61.6,58.8,98,77,48,30.15,30.08,3,1,7,0.00
2014-8-25,84.6,71.1,57.3,66.1,61.4,56.5,98,74,45,30.18,30.11,3,1,7,0.00
2014-8-26,87.6,73.2,59.1,66.5,62.9,57.6,97,73,45,30.16,30.05,3,0,5,0.00
2014-8-27,90.9,76.7,61.9,72.4,67.7,60.8,98,76,52,30.06,29.86,2,0,4,0.00
2014-8-28,79.4,71.8,61.5,71.0,60.5,53.5,88,69,45,30.09,29.86,6,2,10,0.00
2014-8-29,79.6,66.5,53.7,58.4,54.1,49.8,88,67,43,30.21,30.08,2,1,6,0.00
2014-8-30,80.5,69.7,59.4,67.8,63.0,56.9,96,80,60,30.23,30.10,4,2,11,0.00
2014-8-31,89.2,77.3,71.1,77.8,72.9,67.5,96,87,62,30.12,29.96,4,1,10,0.03
2014-9-1,89.7,78.5,71.8,77.3,73.7,71.1,98,86,63,30.00,29.89,2,0,5,0.00
2014-9-2,92.1,79.4,71.4,75.1,71.5,68.0,95,79,54,29.93,29.80,4,1,11,0.00
2014-9-3,82.5,73.8,66.4,69.4,65.3,61.3,96,76,53,30.11,29.86,2,1,5,0.00
2014-9-4,86.6,75.5,61.0,71.2,66.4,59.9,97,75,53,30.17,30.07,5,2,8,0.00
2014-9-5,87.7,74.8,69.3,77.3,71.9,67.9,99,91,68,30.15,29.99,3,0,6,0.00
2014-9-6,91.4,78.1,70.2,77.2,73.3,64.4,97,86,60,29.99,29.83,2,1,5,0.01
2014-9-7,79.7,69.5,62.9,64.7,58.1,53.4,90,69,41,30.16,29.94,3,1,9,0.00
2014-9-8,73.8,65.3,57.0,64.0,58.1,53.8,90,78,61,30.27,30.15,5,1,9,0.00
2014-9-9,74.6,67.2,62.6,64.3,61.1,57.9,88,81,68,30.22,30.10,3,1,6,0.00
2014-9-10,80.3,69.8,62.1,65.7,62.8,60.6,95,80,56,30.11,29.97,3,1,7,0.00
2014-9-11,85.6,74.7,66.3,73.1,68.4,61.6,94,82,63,29.98,29.83,4,2,10,0.00
2014-9-12,74.7,65.0,56.8,61.7,55.6,52.0,88,73,52,30.15,29.96,4,1,6,0.00
2014-9-13,64.7,59.0,54.3,63.2,56.5,50.5,97,91,83,30.20,30.07,3,1,7,0.14
2014-9-14,68.5,56.2,46.4,52.8,48.9,44.8,96,78,54,30.32,30.19,3,1,6,0.00
2014-9-15,73.9,58.7,45.1,54.7,49.9,43.9,98,76,47,30.25,30.04,2,0,6,0.00
2014-9-16,72.6,63.3,55.6,59.0,55.2,51.9,97,76,52,30.05,29.96,5,1,14,0.06
2014-9-17,74.3,60.9,50.4,56.4,52.5,49.0,97,76,47,30.06,29.95,2,0,5,0.00
2014-9-18,75.9,60.3,50.5,59.3,51.9,47.3,96,76,43,30.10,29.95,3,0,5,0.00
2014-9-19,70.4,59.4,48.5,58.1,52.8,46.4,95,80,63,30.31,30.10,4,2,9,0.00
2014-9-20,78.8,66.4,55.9,63.5,59.8,54.1,96,81,55,30.30,30.03,4,2,10,0.00
2014-9-21,83.6,68.1,58.7,67.3,62.5,57.9,99,85,53,30.04,29.60,4,1,9,0.26
2014-9-22,68.4,61.0,52.2,63.1,50.5,43.4,97,70,49,30.20,29.68,6,2,12,0.00
2014-9-23,72.5,57.5,44.5,50.5,45.8,41.1,90,68,39,30.38,30.20,3,0,6,0.00
2014-9-24,71.2,58.8,45.3,59.6,52.7,44.0,96,81,62,30.50,30.38,5,1,10,0.00
2014-9-25,62.9,58.9,56.2,61.1,57.5,55.2,98,95,89,30.41,30.23,2,0,4,0.81
2014-9-26,77.5,62.2,48.4,59.5,55.1,48.1,100,80,47,30.26,30.17,3,0,8,0.01
2014-9-27,82.6,65.1,50.8,62.5,56.8,49.4,98,78,44,30.25,30.16,2,0,5,0.00
2014-9-28,83.9,67.1,51.9,64.3,58.8,51.1,99,78,46,30.18,30.02,2,0,4,0.00
2014-9-29,75.0,66.5,58.7,65.7,61.7,57.3,96,86,63,30.01,29.89,1,0,4,0.00
2014-9-30,78.3,67.6,59.6,65.2,61.9,58.7,99,83,59,29.95,29.84,3,1,6,0.00
2014-10-1,72.7,64.0,56.6,62.1,60.0,56.0,99,88,68,30.06,29.94,3,0,6,0.07
2014-10-2,70.7,61.9,53.8,60.2,57.9,53.0,98,87,65,30.14,30.06,1,0,4,0.00
2014-10-3,70.7,61.4,53.1,61.7,57.9,52.6,99,89,71,30.10,29.73,6,2,13,0.07
2014-10-4,65.2,59.2,43.3,63.4,51.8,35.9,99,78,46,29.79,29.57,6,3,12,0.27
2014-10-5,60.5,48.7,38.4,42.0,37.5,33.3,84,67,43,29.98,29.78,4,1,10,0.00
2014-10-6,70.8,56.9,41.8,52.6,46.3,39.6,95,70,47,30.03,29.92,6,3,13,0.00
2014-10-7,68.4,62.2,57.8,60.5,55.1,52.3,93,78,58,30.02,29.82,5,2,13,0.06
2014-10-8,73.0,63.1,52.4,59.5,52.3,43.6,94,70,42,29.97,29.80,5,2,11,0.02
2014-10-9,70.8,58.6,45.8,47.7,43.5,39.6,83,59,36,30.09,29.96,3,1,7,0.00
2014-10-10,58.2,52.6,44.9,49.7,46.9,42.3,93,81,66,30.13,30.07,1,0,2,0.00
2014-10-11,55.4,51.0,46.2,53.7,49.5,45.3,98,95,88,30.19,30.02,2,0,5,0.45
2014-10-12,64.6,51.9,39.5,48.2,44.2,39.0,99,78,48,30.31,30.18,3,1,6,0.01
2014-10-13,63.2,58.2,53.6,62.9,55.8,48.1,99,92,77,30.30,30.19,3,1,8,0.01
2014-10-14,75.9,69.4,63.3,68.1,66.0,63.0,100,90,75,30.19,29.98,6,3,15,0.01
2014-10-15,73.5,67.6,63.1,70.3,66.3,62.5,100,96,89,29.99,29.70,6,3,12,4.02
2014-10-16,68.9,60.9,54.7,63.5,58.6,54.6,100,93,70,29.73,29.66,3,1,8,0.10
2014-10-17,72.0,61.4,52.2,57.5,55.0,51.7,99,81,54,29.77,29.64,3,1,8,0.01
2014-10-18,67.1,57.9,49.2,55.9,49.5,42.8,96,75,53,29.81,29.58,7,2,14,0.00
2014-10-19,54.6,48.5,41.7,44.2,36.4,30.8,81,64,42,30.08,29.80,6,3,13,0.00
2014-10-20,60.6,49.4,34.7,50.1,41.8,33.0,95,76,59,30.12,29.92,4,1,10,0.02
2014-10-21,65.2,56.3,47.7,54.5,50.9,46.8,98,83,64,29.92,29.80,3,0,7,0.05
2014-10-22,54.1,52.7,50.8,51.8,49.9,45.7,96,91,82,29.93,29.86,5,2,13,0.19
2014-10-23,56.8,53.4,50.0,49.4,46.6,44.5,87,78,65,29.88,29.81,6,3,14,0.00
2014-10-24,66.2,58.5,53.0,48.2,44.2,37.8,76,60,37,29.91,29.83,5,3,12,0.00
2014-10-25,69.7,55.1,45.2,48.9,44.1,39.9,83,68,47,29.92,29.61,3,1,8,0.00
2014-10-26,64.3,57.8,47.4,50.1,40.1,33.7,77,53,40,29.90,29.60,7,3,16,0.00
2014-10-27,67.8,53.6,41.5,44.6,37.9,34.3,77,57,33,30.07,29.89,3,1,6,0.00
2014-10-28,80.3,63.3,48.6,59.5,51.9,44.5,89,68,46,30.02,29.87,3,1,7,0.00
2014-10-29,67.0,56.3,43.7,58.4,52.1,42.9,98,87,61,29.97,29.86,5,1,13,0.08
2014-10-30,56.3,46.3,38.9,45.2,41.1,37.9,99,84,59,30.05,29.96,3,1,6,0.01
2014-10-31,58.3,47.7,42.4,40.9,38.8,34.9,91,73,46,30.04,29.85,3,0,6,0.00
2014-11-1,51.4,46.0,42.6,43.8,40.6,33.5,93,82,69,29.90,29.78,1,0,4,0.06
2014-11-2,52.2,43.2,38.0,35.2,27.6,19.0,86,56,32,30.19,29.88,3,1,7,0.00
2014-11-3,65.6,49.1,34.9,30.2,24.4,20.8,65,41,20,30.28,30.17,2,0,5,0.01
2014-11-4,76.3,60.0,44.3,41.7,32.4,17.3,61,39,12,30.19,30.01,3,0,8,0.00
2014-11-5,64.8,56.8,49.5,49.7,41.4,36.1,77,57,50,30.17,30.02,2,0,6,0.00
2014-11-6,50.9,48.6,46.1,50.5,47.7,42.5,99,97,77,30.13,29.64,1,0,3,0.06
2014-11-7,46.0,41.6,32.8,45.7,37.8,25.9,99,87,62,30.03,29.66,1,0,3,0.01
2014-11-8,52.7,40.3,28.8,35.9,30.3,25.6,91,69,42,30.07,29.91,3,1,7,0.00
2014-11-9,52.7,44.3,35.6,38.7,33.3,30.8,87,66,47,30.04,29.90,3,1,6,0.00
2014-11-10,60.3,46.8,32.9,44.4,37.7,30.1,91,72,53,30.18,30.03,3,1,5,0.00
2014-11-11,65.0,52.0,39.5,58.6,49.7,37.6,97,92,79,30.12,29.89,2,0,4,0.00
2014-11-12,61.4,53.2,36.4,58.7,44.9,29.8,98,76,49,30.13,29.86,4,1,8,0.00
2014-11-13,41.4,35.8,32.0,32.7,30.1,27.7,97,80,62,30.15,30.05,2,0,3,0.00
2014-11-14,33.4,33.0,32.6,32.6,31.1,29.9,97,92,89,30.06,30.04,2,1,5,0.00
2014-11-15,37.7,31.2,26.6,25.9,22.6,20.6,81,71,56,30.41,30.27,3,1,0,0.00
2014-11-16,41.1,35.9,27.8,34.7,27.0,21.5,95,71,52,30.38,30.06,2,1,4,0.00
2014-11-17,46.4,40.1,36.1,45.6,38.5,29.1,98,94,71,30.06,29.53,6,1,8,0.00
2014-11-18,36.8,24.8,20.7,29.0,9.5,4.7,74,52,39,30.21,29.73,10,5,12,0.00
2014-11-19,32.3,24.9,17.3,15.7,10.4,6.9,65,54,45,30.35,30.02,5,3,8,0.00
2014-11-20,44.5,35.0,26.2,29.8,19.3,12.8,61,53,42,30.12,29.90,6,2,9,0.00
2014-11-21,33.5,27.2,22.6,13.4,11.9,10.2,64,53,40,30.55,30.12,5,2,10,0.00
2014-11-22,42.1,32.0,19.0,24.5,17.0,11.3,74,55,36,30.55,30.23,5,1,7,0.00
2014-11-23,55.2,44.0,34.9,48.7,28.7,21.0,95,56,36,30.24,29.84,3,1,4,0.02
2014-11-24,68.3,62.5,51.3,62.2,57.6,50.2,99,85,67,29.83,29.56,6,4,16,0.48
2014-11-25,61.1,50.0,39.9,55.9,36.9,31.3,83,61,47,30.17,29.76,5,2,8,0.00
2014-11-26,40.6,34.9,32.0,36.3,32.8,31.0,98,92,77,30.19,29.89,2,0,4,0.43
2014-11-27,37.8,33.2,29.4,31.7,29.9,27.3,97,88,77,30.13,29.97,2,0,3,0.44
2014-11-29,38.3,34.0,28.3,33.0,26.2,20.4,83,73,60,30.36,30.16,2,1,4,0.00
2014-11-30,57.4,47.3,38.3,46.2,39.2,33.0,81,74,65,30.17,30.05,6,1,8,0.29
2014-12-1,67.9,53.6,38.9,55.5,45.6,29.5,94,75,63,30.47,30.09,5,2,7,0.23
2014-12-2,38.8,33.1,30.8,32.3,29.0,24.8,97,85,69,30.59,30.31,3,1,4,0.31
2014-12-3,43.8,37.6,32.8,43.3,36.4,28.5,99,96,78,30.31,30.01,4,1,6,0.18
2014-12-4,40.1,35.1,30.0,29.7,26.6,24.7,85,71,55,30.51,30.28,4,1,6,0.00
2014-12-5,38.5,36.2,33.0,36.9,31.9,25.7,97,85,74,30.55,30.34,1,0,1,0.18
2014-12-6,44.9,40.9,37.7,44.4,40.2,34.7,98,97,85,30.33,30.06,3,0,6,0.56
2014-12-7,43.3,35.7,28.9,34.5,23.0,17.8,84,61,39,30.60,30.26,4,2,7,0.00
2014-12-8,29.8,27.8,23.9,26.0,18.7,11.4,86,69,55,30.65,30.30,3,1,4,0.00
2014-12-9,41.3,38.0,29.5,38.2,34.9,25.8,92,89,86,30.29,29.84,3,2,7,0.11
2014-12-10,42.0,37.6,31.5,37.1,31.5,28.0,93,79,67,29.84,29.74,5,4,11,0.02
2014-12-11,33.1,31.2,29.8,29.6,27.2,24.3,96,85,71,29.95,29.77,8,4,13,0.00
2014-12-12,37.3,34.6,31.7,31.3,28.2,23.8,83,77,71,30.09,29.96,3,1,6,0.01
2014-12-13,36.9,33.3,27.7,31.0,28.4,24.0,87,82,78,30.11,29.98,3,1,6,0.00
2014-12-14,44.9,39.5,31.7,39.1,34.6,28.4,90,83,78,30.03,29.93,2,1,4,0.00
2014-12-15,42.9,39.2,31.6,37.8,35.2,30.5,96,86,80,30.12,30.02,2,1,5,0.00
2014-12-16,45.1,38.7,31.6,44.6,38.1,30.6,98,98,96,30.09,29.87,3,1,4,0.29
2014-12-17,49.2,42.0,35.8,42.6,35.6,24.7,99,79,62,30.02,29.87,7,3,13,0.00
2014-12-18,36.8,34.0,32.0,26.7,24.3,20.0,76,68,58,30.12,30.00,6,3,9,0.00
2014-12-19,39.4,33.5,27.8,27.8,25.4,22.4,81,72,58,30.22,30.06,4,2,7,0.00
2014-12-20,35.1,30.4,25.9,24.8,23.1,21.2,85,74,65,30.32,30.21,2,1,3,0.00
2014-12-21,35.0,29.0,23.6,26.5,23.8,21.0,91,81,67,30.37,30.29,3,1,4,0.00
2014-12-22,35.0,24.7,19.4,31.2,22.8,18.0,96,92,86,30.35,30.22,2,0,3,0.00
2014-12-23,48.7,45.9,38.8,48.4,45.6,38.3,99,99,98,30.08,30.02,2,0,2,0.14
2014-12-24,57.5,50.4,45.0,57.5,50.3,44.7,100,100,99,30.05,29.49,6,1,8,0.60
2014-12-25,58.7,46.6,36.6,58.7,38.6,30.6,100,74,57,30.20,29.50,9,3,12,0.04
2014-12-26,49.1,38.9,31.8,34.8,31.5,28.0,87,75,57,30.33,30.18,4,1,6,0.00
2014-12-27,56.7,43.0,29.0,40.0,34.0,27.2,95,72,46,30.30,30.06,2,0,2,0.00
2014-12-28,51.6,45.1,41.0,45.8,39.9,33.7,95,82,72,30.10,29.91,3,1,4,0.05
2014-12-29,42.9,37.0,29.0,33.9,27.6,22.4,80,69,53,30.27,30.10,2,0,3,0.00
2014-12-30,34.7,29.0,22.9,24.4,19.9,14.9,83,69,49,30.44,30.27,3,1,4,0.00
2014-12-31,30.7,26.0,22.1,17.3,13.0,9.2,74,58,46,30.44,30.22,6,2,10,0.00
2015-1-1,39.1,31.6,22.9,20.4,14.9,9.5,59,50,40,30.22,30.02,8,4,12,0.00
2015-1-2,40.5,34.7,27.2,23.9,21.4,18.3,78,58,51,30.45,30.07,5,2,9,0.00